Location: Pallagorio
(39.3000°N, 16.9000°E)
Time: 18:25:56
(UTC+00:00)

S3M - Pass Details

Date: 24 January 2021
Orbit: 949 x 1004 km, 83.0° (Epoch: 02 March)

Event Time Altitude Azimuth Distance (km) Brightness Sun altitude
Rises 18:05:03 0° 357° (N) 3,631 7.0 -23.4°
Reaches altitude 10° 18:07:37 10° 2° (N) 2,680 6.2 -23.9°
Enters shadow 18:12:26 48° 42° (NE) 1,231 4.2 -24.8°
